TimeCDT,TemperatureF,Dew PointF,Humidity,Sea Level PressureIn,VisibilityMPH,Wind Direction,Wind SpeedMPH,Gust SpeedMPH,PrecipitationIn,Events,Conditions,WindDirDegrees,DateUTC
12:53 AM,36.0,33.1,89,29.94,10.0,Calm,Calm,-,N/A,,Clear,0,2012-10-03 05:53:00
1:53 AM,35.1,32.0,89,29.94,10.0,Calm,Calm,-,N/A,,Clear,0,2012-10-03 06:53:00
2:53 AM,34.0,32.0,92,29.94,10.0,Calm,Calm,-,N/A,,Clear,0,2012-10-03 07:53:00
3:53 AM,34.0,32.0,92,29.94,10.0,Calm,Calm,-,N/A,,Clear,0,2012-10-03 08:53:00
4:53 AM,33.1,30.9,92,29.94,10.0,Calm,Calm,-,N/A,,Clear,0,2012-10-03 09:53:00
5:53 AM,34.0,32.0,92,29.94,10.0,Calm,Calm,-,N/A,,Clear,0,2012-10-03 10:53:00
6:53 AM,34.0,30.9,89,29.96,10.0,Calm,Calm,-,N/A,,Clear,0,2012-10-03 11:53:00
7:53 AM,36.0,34.0,93,29.97,10.0,Calm,Calm,-,N/A,,Clear,0,2012-10-03 12:53:00
8:53 AM,52.0,45.0,77,29.97,10.0,Calm,Calm,-,N/A,,Clear,0,2012-10-03 13:53:00
9:53 AM,61.0,46.9,60,29.96,10.0,South,6.9,-,N/A,,Clear,180,2012-10-03 14:53:00
10:53 AM,64.9,46.9,52,29.96,10.0,SSE,5.8,-,N/A,,Clear,160,2012-10-03 15:53:00
11:53 AM,69.1,45.0,42,29.95,10.0,South,3.5,-,N/A,,Clear,170,2012-10-03 16:53:00
12:53 PM,72.0,42.1,34,29.94,10.0,South,6.9,-,N/A,,Clear,180,2012-10-03 17:53:00
1:53 PM,73.0,39.0,29,29.92,10.0,Calm,Calm,-,N/A,,Clear,0,2012-10-03 18:53:00
2:53 PM,73.9,37.9,27,29.91,10.0,Variable,4.6,-,N/A,,Clear,0,2012-10-03 19:53:00
3:53 PM,73.9,42.1,32,29.90,10.0,SE,6.9,-,N/A,,Clear,130,2012-10-03 20:53:00
4:53 PM,73.9,41.0,30,29.90,10.0,Calm,Calm,-,N/A,,Clear,0,2012-10-03 21:53:00
5:53 PM,71.1,41.0,34,29.92,10.0,SSE,6.9,-,N/A,,Clear,160,2012-10-03 22:53:00
6:53 PM,60.1,42.1,51,29.94,10.0,Calm,Calm,-,N/A,,Clear,0,2012-10-03 23:53:00
7:53 PM,52.0,43.0,71,29.95,10.0,Calm,Calm,-,N/A,,Clear,0,2012-10-04 00:53:00
8:53 PM,48.0,41.0,77,29.94,10.0,Calm,Calm,-,N/A,,Clear,0,2012-10-04 01:53:00
10:53 PM,45.0,39.9,82,29.94,10.0,Calm,Calm,-,N/A,,Clear,0,2012-10-04 03:53:00
11:53 PM,53.1,44.1,71,29.92,10.0,Calm,Calm,-,N/A,,Clear,0,2012-10-04 04:53:00